This is the latest recevied weather packets stored in our database for station/object KC5DP. If no packets are shown the sender has not sent any weather packets the latest 10 day(s).
| Time | Temp. | Humidity | Pressure | Rain* | Wind** | Luminosity | Snow |
|---|---|---|---|---|---|---|---|
| 1777928230 | 25° C | 48% | 1014 hPa | 0 mm | - | 81 W/m² | - |
| 1777927928 | 25° C | 47% | 1013.9 hPa | 0 mm | - | 103 W/m² | - |
| 1777927626 | 25.56° C | 45% | 1013.9 hPa | 0 mm | - | 115 W/m² | - |
| 1777927324 | 25.56° C | 45% | 1014.1 hPa | 0 mm | - | 171 W/m² | - |
| 1777927023 | 25.56° C | 44% | 1014.1 hPa | 0 mm | - | 104 W/m² | - |
| 1777926720 | 25.56° C | 45% | 1014.2 hPa | 0 mm | - | 509 W/m² | - |
| 1777926420 | 25.56° C | 44% | 1014.1 hPa | 0 mm | - | 659 W/m² | - |
| 1777926118 | 25.56° C | 44% | 1014.1 hPa | 0 mm | - | 659 W/m² | - |
| 1777925814 | 25° C | 44% | 1014.3 hPa | 0 mm | - | 660 W/m² | - |
| 1777925477 | 25.56° C | 44% | 1014.6 hPa | 0 mm | - | 677 W/m² | - |
| 1777925174 | 25.56° C | 44% | 1014.6 hPa | 0 mm | - | 677 W/m² | - |
| 1777924870 | 25.56° C | 47% | 1014.6 hPa | 0 mm | - | 694 W/m² | - |
| 1777924566 | 26.11° C | 43% | 1014.7 hPa | 0 mm | - | 696 W/m² | - |
| 1777923842 | 25° C | 45% | 1015.1 hPa | 0 mm | - | 741 W/m² | - |
| 1777923539 | 25° C | 45% | 1015.1 hPa | 0 mm | - | 741 W/m² | - |
| 1777923236 | 25° C | 43% | 1015.1 hPa | 0 mm | - | 734 W/m² | - |
| 1777922935 | 25° C | 49% | 1015.1 hPa | 0 mm | - | 746 W/m² | - |
| 1777922632 | 25.56° C | 47% | 1015.5 hPa | 0 mm | - | 751 W/m² | - |
| 1777922330 | 25.56° C | 46% | 1015.5 hPa | 0 mm | - | 758 W/m² | - |
| 1777922028 | 25.56° C | 44% | 1015.2 hPa | 0 mm | - | 752 W/m² | - |
| 1777921723 | 25° C | 46% | 1015.4 hPa | 0 mm | - | 764 W/m² | - |
| 1777921419 | 25° C | 46% | 1015.4 hPa | 0 mm | - | 755 W/m² | - |
| 1777921116 | 25° C | 48% | 1015.3 hPa | 0 mm | - | 775 W/m² | - |
| 1777920813 | 25° C | 44% | 1015.5 hPa | 0 mm | - | 787 W/m² | - |
| 1777920509 | 25° C | 47% | 1015.6 hPa | 0 mm | - | 777 W/m² | - |
* Rain latest hour (hover to see other rain measurements)
** Current wind speed in m/s (hover to see current wind gust speed)